Theta_e
346 349 350 350 348 344 344 348 348 349 347 347 346 346 343 341 346 347 349 361 361 362 362 361 359 358 356 357 358 357 355 357 355 353 354 356 356 357 355 357 355 354 354
345 348 348 350 348 345 342 347 345 345 344 344 343 345 343 343 350 348 347 355 361 362 363 362 362 360 358 357 357 358 358 358 359 359 358 358 357 358 359 358 358 357 358
348 346 347 347 349 348 343 343 345 345 343 343 342 342 342 342 345 348 348 350 354 361 360 362 361 363 362 361 360 360 359 359 359 360 359 359 358 357 357 358 359 359 358
349 344 345 347 348 347 347 345 343 342 343 342 341 342 343 341 340 344 348 350 352 354 359 361 361 361 362 363 363 362 361 359 358 358 359 359 358 357 357 358 359 358 358
351 347 346 347 347 346 347 346 345 343 342 341 342 343 341 339 340 342 342 348 350 352 352 357 360 359 361 363 364 364 363 360 359 359 359 360 359 358 357 357 357 357 357
351 349 348 348 347 345 345 345 344 345 343 342 344 343 343 343 342 340 341 342 345 350 350 350 352 354 362 362 362 361 360 362 361 360 360 359 359 357 357 355 354 354 355
349 348 347 347 347 346 346 346 344 342 342 342 338 337 338 342 343 345 344 343 344 344 348 350 350 352 353 360 359 359 360 361 361 360 358 358 358 356 356 356 354 353 353
348 347 345 344 345 345 343 344 341 340 341 342 337 332 328 332 336 343 345 345 345 345 346 349 349 351 351 351 355 359 359 360 360 359 358 356 356 355 356 355 354 353 352
351 349 347 345 345 344 344 344 344 342 339 340 340 334 327 325 331 335 338 342 343 342 345 345 349 351 351 350 355 358 360 357 359 359 358 357 355 353 354 354 354 353 353
350 351 350 348 347 345 342 344 346 343 340 336 338 342 337 336 330 326 334 338 341 343 342 346 346 347 350 352 356 357 357 354 357 358 358 357 355 354 354 354 354 354 353
348 350 349 348 347 348 347 344 343 342 343 337 336 336 337 335 334 331 328 333 339 341 343 344 342 341 344 350 353 354 356 354 354 355 354 355 354 352 352 352 353 354 355
346 348 349 348 346 347 347 346 345 344 343 342 340 339 337 335 334 331 332 332 332 336 341 342 343 345 347 349 354 355 356 354 350 348 348 350 350 350 350 351 352 353 354
346 347 347 346 346 346 347 345 345 344 342 342 342 340 341 338 337 336 333 331 329 332 334 340 343 345 348 347 349 355 357 350 346 344 344 345 345 347 348 349 350 352 353
347 349 349 348 347 347 346 346 343 344 342 339 339 341 341 341 341 340 337 332 327 327 330 331 340 343 343 345 348 352 350 347 345 342 341 340 342 343 344 345 346 348 351
348 348 350 349 348 347 347 346 342 342 342 340 341 342 343 343 343 342 338 335 333 329 326 329 333 339 341 342 345 346 347 346 346 342 339 338 339 340 341 341 341 342 343
348 348 349 350 348 347 347 345 343 342 342 341 342 340 341 342 342 341 339 336 334 333 328 330 333 339 344 344 345 344 344 344 343 340 338 336 338 338 339 339 340 340 340
346 347 349 348 348 347 347 345 343 342 341 340 341 340 340 339 339 338 336 333 333 333 330 332 337 340 339 340 341 339 341 339 339 338 337 336 335 335 336 336 337 337 337
338 345 346 347 347 347 346 344 343 343 340 338 339 338 338 341 337 337 336 333 332 333 331 328 333 337 336 337 336 336 336 336 333 337 335 333 332 331 332 332 332 331 330
338 337 339 344 345 346 345 345 344 342 341 340 340 338 337 338 336 336 336 336 336 336 335 331 331 334 334 334 335 336 335 335 333 337 334 332 332 331 330 329 327 324 323
335 335 334 343 345 344 344 344 343 340 339 340 340 339 338 337 338 336 336 337 336 336 336 336 331 331 330 333 331 330 329 332 331 334 335 332 332 333 332 329 328 327 323
332 334 332 344 343 343 345 343 343 341 339 338 339 340 339 340 338 336 338 335 334 333 331 330 328 328 328 330 330 329 329 328 330 331 329 328 326 327 329 330 332 332 325
332 333 341 343 340 346 335 333 339 340 340 338 337 338 339 340 338 333 334 335 336 334 331 329 328 327 327 329 329 326 325 325 323 327 329 327 326 325 327 331 331 327 322
338 339 341 340 338 340 330 327 332 342 340 340 339 338 338 342 337 338 333 332 332 332 333 334 328 328 327 329 329 324 323 324 324 324 328 326 327 325 327 331 327 323 320
333 335 337 339 339 340 326 324 327 337 338 339 341 340 339 339 337 337 335 332 334 335 335 336 333 332 332 332 334 332 328 326 326 326 330 323 328 327 327 331 326 322 320
333 334 338 339 338 339 327 321 325 333 334 337 337 338 339 338 331 325 334 330 329 331 327 324 327 327 326 325 329 329 325 324 323 324 328 327 324 325 329 329 327 322 318
332 335 336 336 331 337 322 319 320 334 333 335 336 336 329 334 325 320 333 334 331 332 330 327 326 325 324 325 325 333 329 325 322 322 327 326 323 324 323 328 329 324 321
Wind_Speed
5 5 5 5 4 4 4 4 4 4 4 5 4 5 5 5 4 2 4 17 16 17 17 17 17 17 17 16 16 16 15 15 15 14 15 14 13 12 12 13 13 13 13
5 6 6 6 5 4 4 5 5 5 5 4 5 5 5 3 5 5 4 6 17 17 17 17 18 18 17 17 16 16 17 17 16 15 16 14 13 14 14 14 15 13 13
7 6 6 6 6 5 6 4 4 3 4 3 6 5 4 5 4 7 5 4 5 15 15 17 18 18 18 17 17 17 16 16 15 15 15 14 15 14 14 13 13 14 14
8 6 6 6 5 5 5 4 4 4 4 4 4 5 5 5 6 5 5 6 6 6 12 18 17 18 19 19 19 19 17 16 15 15 15 15 15 14 14 14 14 15 14
10 8 6 6 6 4 5 4 4 4 4 3 4 4 4 5 5 4 7 7 8 8 6 11 17 18 19 19 19 19 19 17 17 16 16 16 16 16 16 16 16 16 16
11 8 7 5 6 5 5 4 5 4 3 4 3 2 2 4 4 4 5 6 6 8 8 8 7 10 18 18 19 18 16 17 17 18 17 17 16 17 17 17 17 17 17
9 9 6 6 5 7 8 9 4 6 5 4 2 2 2 5 5 5 4 5 5 7 8 8 6 6 7 19 17 16 17 19 18 17 18 17 17 16 17 17 16 16 17
9 9 8 7 7 4 6 5 4 2 2 4 3 2 2 4 3 6 5 5 7 4 5 9 8 8 8 5 9 17 18 17 17 17 17 15 15 15 13 15 15 14 16
12 11 9 7 7 6 7 7 6 7 4 4 5 4 1 5 1 2 5 5 5 4 6 4 6 6 6 6 9 11 15 15 17 18 16 12 10 7 9 10 11 12 14
11 11 11 9 9 5 5 6 6 5 4 4 1 5 2 3 3 3 2 2 2 5 3 3 2 4 4 5 11 12 12 13 16 15 13 10 7 8 9 10 10 11 12
13 13 11 9 9 7 7 8 5 5 5 4 4 3 4 3 2 2 4 4 2 3 4 5 4 4 5 5 8 9 12 12 12 11 8 8 8 9 10 11 11 12 13
8 10 11 10 9 9 9 9 8 8 8 6 4 5 5 4 5 4 6 3 3 4 4 4 4 3 4 7 13 10 11 11 8 8 8 8 8 9 10 11 13 14 15
6 9 9 9 7 8 8 7 8 8 7 8 9 6 5 4 2 3 3 1 4 3 3 4 4 3 2 5 4 8 12 10 9 8 8 9 8 7 8 10 13 14 15
8 9 10 9 10 8 8 8 5 7 6 5 7 5 4 4 4 4 4 4 2 3 2 5 3 3 4 2 3 10 3 9 8 8 8 7 7 7 8 8 10 11 11
8 10 12 11 10 10 9 8 6 8 6 5 6 6 6 6 5 5 4 5 5 4 4 3 3 5 4 3 6 4 5 6 8 7 8 8 8 7 7 7 8 8 7
11 10 11 11 10 10 9 8 6 5 7 5 5 7 6 4 5 4 4 4 4 5 3 3 3 3 4 3 5 4 5 7 8 10 8 7 6 4 6 7 7 6 5
7 10 12 11 11 11 10 9 8 8 8 6 6 7 8 5 4 4 3 3 4 4 6 2 3 3 3 3 1 2 3 3 3 6 6 6 4 3 4 4 4 4 1
5 4 6 10 11 11 10 10 10 9 8 8 7 6 7 4 7 6 5 5 4 5 4 5 3 3 4 4 4 4 3 3 4 6 6 4 3 3 4 4 3 1 4
2 5 2 6 9 9 10 10 10 9 9 8 9 8 8 6 5 4 5 6 5 5 5 3 4 2 2 3 3 3 3 3 3 6 6 4 3 4 3 2 1 2 4
6 3 8 10 7 8 11 10 10 9 8 8 8 7 7 7 8 7 6 8 6 6 6 5 3 3 2 2 3 3 2 2 3 3 4 5 5 5 4 3 2 4 6
15 14 12 10 7 8 8 9 10 9 9 7 8 9 8 9 11 9 5 6 6 5 4 4 3 3 3 3 5 3 3 2 2 2 2 2 2 2 2 3 4 6 7
7 6 6 7 9 7 10 12 11 9 8 8 8 7 7 10 9 12 13 12 10 7 6 4 3 4 5 4 3 4 4 3 3 3 3 3 3 3 3 3 5 6 8
7 11 11 9 8 7 9 11 13 7 9 9 9 8 7 7 9 7 10 13 11 13 7 8 6 7 5 8 7 5 5 4 4 3 4 3 3 4 2 2 6 5 10
7 7 6 6 5 2 9 9 10 6 5 7 9 9 8 7 7 8 7 7 8 8 9 6 7 6 6 6 9 9 10 5 2 2 4 3 3 4 2 3 6 7 9
5 3 3 6 6 5 6 7 5 4 5 8 4 6 7 7 9 10 6 7 7 8 6 9 10 9 9 9 8 7 5 5 3 3 5 3 3 3 3 3 3 9 11
3 4 4 4 6 2 3 8 7 4 5 4 5 5 10 8 10 11 9 8 9 10 7 4 4 5 8 7 16 10 8 7 3 2 5 6 3 3 2 3 4 5 4
Wind_Direction
168 155 175 168 178 171 172 184 192 213 223 234 229 215 238 233 172 160 154 184 193 207 204 199 198 202 202 204 207 210 211 213 212 209 212 215 219 219 226 213 221 221 220
163 168 170 181 187 183 183 192 190 198 227 228 251 226 204 208 162 177 184 198 197 211 210 204 205 208 211 212 213 215 216 219 218 214 219 218 221 223 219 223 226 233 219
175 171 176 185 193 187 184 202 209 210 226 241 261 266 200 205 174 174 182 191 217 218 218 217 209 208 214 216 219 221 221 224 228 221 224 222 225 227 228 230 225 226 228
173 177 186 192 193 177 184 184 191 214 232 216 223 243 241 202 193 200 193 190 198 210 231 227 219 218 213 219 220 221 223 225 227 230 227 225 230 230 231 232 231 231 234
185 176 193 197 172 183 195 178 209 182 208 212 204 230 233 246 234 185 201 199 202 206 210 230 228 226 222 220 226 223 222 221 224 229 233 229 229 231 232 231 234 233 232
186 183 191 194 177 176 194 178 194 196 181 193 200 227 281 273 265 247 230 203 206 206 212 219 220 229 230 226 229 230 231 228 227 227 231 233 235 236 237 238 235 232 229
182 184 191 184 183 192 200 196 182 186 212 171 118 309 278 240 262 252 236 246 220 202 208 214 212 213 225 231 232 234 230 231 231 230 233 234 236 239 242 243 241 237 232
184 187 187 184 187 179 189 188 177 153 213 180 149 93 284 315 266 233 229 225 233 229 223 219 211 214 216 213 222 228 231 235 238 235 235 237 242 246 248 248 247 247 237
192 193 195 190 184 185 189 185 177 175 190 207 190 153 142 231 328 292 250 241 236 212 233 221 218 222 227 218 222 227 232 228 234 242 241 238 235 247 258 258 259 254 243
193 193 197 190 186 185 183 188 186 182 150 195 248 232 203 152 190 313 317 332 246 237 195 192 184 245 246 237 235 222 221 227 228 237 240 232 218 238 249 253 259 258 245
195 194 200 186 188 184 190 188 182 185 187 165 179 157 235 234 208 172 259 281 300 247 229 229 215 229 205 248 249 228 214 218 217 226 212 209 222 243 257 262 264 262 255
196 200 196 197 195 187 185 190 189 198 207 216 210 197 188 179 209 187 231 228 238 274 219 234 227 227 284 283 256 208 211 218 213 182 204 217 237 251 263 271 271 267 260
197 210 199 198 206 197 192 183 197 201 201 204 209 215 214 207 188 191 178 185 232 264 272 226 236 255 210 224 257 225 225 170 185 203 208 223 236 250 266 278 280 273 260
192 199 206 207 205 201 201 189 184 209 206 204 204 197 194 211 205 215 209 176 253 261 293 250 205 192 211 93 52 312 200 190 184 197 208 217 235 256 271 286 286 278 257
193 194 199 203 201 196 192 186 194 196 183 193 205 209 204 214 207 212 193 182 191 234 241 255 232 219 228 223 214 173 234 200 196 198 209 212 228 250 276 289 295 284 246
196 188 197 200 195 194 186 180 202 186 190 195 204 202 210 204 201 181 197 199 186 193 237 214 253 254 214 209 242 171 196 189 199 197 201 216 235 265 294 305 317 309 256
224 185 192 192 193 188 187 182 191 193 191 201 208 211 222 208 198 186 186 185 188 177 202 230 217 219 199 213 162 133 172 140 188 200 202 215 235 268 296 310 311 310 276
66 358 211 192 187 189 185 182 196 198 189 199 208 206 229 205 205 186 180 207 203 206 187 209 208 202 182 193 172 160 158 167 179 199 194 212 233 266 283 311 298 271 144
75 312 2 240 194 186 190 188 197 195 190 206 211 200 219 206 229 209 198 193 202 200 207 198 227 189 141 157 148 137 155 166 180 186 192 194 202 225 241 254 258 189 184
174 213 270 254 211 191 198 186 196 202 193 200 212 201 208 200 213 216 212 214 198 193 206 215 204 207 157 168 131 146 182 180 185 195 208 208 219 236 242 252 215 191 188
192 209 235 231 204 201 198 189 200 208 207 192 205 215 211 207 204 210 202 216 199 203 185 193 198 180 180 171 192 162 177 125 234 204 232 249 223 225 236 231 228 203 177
253 225 240 236 224 211 193 198 200 199 218 201 205 206 217 219 216 222 221 219 199 196 208 192 201 195 191 193 142 167 148 162 227 217 198 232 181 234 233 224 227 180 161
210 209 212 200 208 233 205 207 217 208 205 210 213 199 216 224 210 213 231 236 218 215 193 190 196 206 186 187 161 170 177 177 196 177 182 243 179 241 223 233 234 193 166
220 208 193 165 173 225 243 231 230 234 222 218 217 209 206 220 212 204 218 221 222 219 222 202 205 207 209 184 182 185 190 176 81 119 150 215 152 210 188 197 207 185 184
195 209 202 187 182 162 256 265 208 223 260 241 219 233 206 213 224 211 209 227 235 237 227 233 215 203 205 191 163 131 159 163 184 186 185 184 180 170 177 175 184 189 182
152 112 107 93 117 111 285 242 220 195 227 213 231 205 221 231 217 205 203 210 232 234 204 194 233 245 228 209 179 185 168 184 143 172 188 190 149 156 189 184 171 161 166